Location: Musselshell
(46.5176°N, 108.0911°W)
Time: 03:11:50
(UTC+00:00)

NOAA 15 - Visible Passes

Search period start: 28 June 2022 00:00
Search period end: 08 July 2022 00:00
Orbit: 798 x 811 km, 98.6° (Epoch: 27 June)

Date Brightness Start Highest point End Pass type
(mag) Time Alt. Az. Time Alt. Az. Time Alt. Az.
28 Jun 7.7 03:53:42 10° W 03:54:47 11° W 03:55:51 10° WNW visible
02 Jul 7.6 03:52:03 10° W 03:53:25 11° W 03:54:48 10° WNW visible
06 Jul 7.6 03:50:26 10° WSW 03:52:03 11° W 03:53:41 10° WNW visible
